[[{"header":{"parameterUnit":"m.s-1","parameterCategory":1,"la1":30.2991,"la2":30.254,"lo1":-89.0895,"lo2":-89.0444,"dy":0.0017,"dx":0.0017,"nx":28,"ny":28,"refTime":"2025-11-29T03:00:00:Z","depth":0,"parameterNumber":2,"parameterNumberName":"U-component_of_WINDS"},"data":[0,0,0,0,0,0,0,0,0,0,0,0,0,0,0,0,0,0,0,0,0,0,0,0,0,0,0,0,0,0,0,0,0,0,0,0,0,0,0,0,0,0,0,0,0,0,0,0,0,0,0,0,0,0,0,0,0,0,-2.0664,-2.0665,0,-2.0711,-2.0712,-2.0712,-2.0657,-2.0655,-2.0653,-2.0651,-2.0704,-2.0707,-2.0711,0,0,0,0,0,0,0,0,0,0,0,0,0,-2.0532,-2.0534,-2.0664,-2.0665,-2.0665,-2.0711,-2.0712,-2.0712,-2.0658,-2.0655,-2.0653,-2.065,-2.0703,-2.0707,-2.0711,0,0,0,0,0,0,0,0,0,0,0,0,0,-2.0585,-2.0535,-2.0664,-2.0643,-2.0642,-2.0711,-2.0712,-2.0712,-2.0658,-2.0655,-2.0652,-2.0649,-2.0702,-2.0707,-2.0711,-2.0804,0,0,-2.0727,-2.0729,0,0,0,0,0,0,0,0,-2.0582,-2.059,-2.0646,-2.0645,-2.0643,-2.0675,-2.0684,-2.0743,-2.0659,-2.0652,-2.0651,-2.0648,-2.0697,-2.0702,-2.0718,-2.0807,-2.0809,-2.0727,-2.073,-2.0732,-2.0734,0,0,0,0,0,0,0,-2.0579,-2.0588,-2.0683,-2.0647,-2.0645,-2.0633,-2.0637,-2.0695,-2.0692,-2.0653,-2.0649,-2.0655,-2.0696,-2.0713,-2.0719,-2.081,-2.0727,-2.0731,-2.0735,-2.0737,-2.0979,-2.0982,0,0,0,0,0,0,-2.0577,-2.0585,-2.0681,-2.0684,-2.0604,-2.0638,-2.0643,-2.0668,-2.0691,-2.0691,-2.0657,-2.0652,-2.0706,-2.0713,-2.0721,-2.0832,-2.0732,-2.0737,-2.074,-2.0975,-2.098,-2.0983,0,0,0,0,0,0,-2.0574,-2.0586,-2.0679,-2.0634,-2.0645,-2.0644,-2.0673,-2.0671,-2.0688,-2.0694,-2.0694,-2.0676,-2.0704,-2.0714,-2.0784,-2.0833,-2.0739,-2.0744,-2.0971,-2.0977,-2.0981,-2.1055,0,0,0,0,0,0,-2.057,-2.0585,-2.0619,-2.0635,-2.0647,-2.0741,-2.0676,-2.0674,-2.0696,-2.069,-2.0711,-2.0712,-2.0703,-2.0777,-2.0789,-2.0838,-2.0748,-2.0967,-2.0974,-2.098,-2.1049,-2.1062,-2.1074,0,0,0,0,0,-2.0566,-2.0639,-2.0621,-2.0633,-2.069,-2.0744,-2.0751,-2.0737,-2.07,-2.0736,-2.074,-2.0711,-2.0825,-2.0784,-2.0798,-2.0849,-2.0964,-2.0972,-2.0979,-2.1043,-2.106,-2.1074,0,0,0,0,0,0,-2.0631,-2.0641,-2.0621,-2.0701,-2.0722,-2.0734,-2.0778,-2.0755,-2.0788,-2.0781,-2.0764,-2.0769,-2.0844,-2.0854,-2.0808,-2.0941,-2.0889,-2.09,-2.0933,-2.0949,-2.0961,-2.0959,-2.0752,0,0,0,0,0,-2.0654,-2.0696,-2.0702,-2.0772,-2.0784,-2.0779,-2.0802,-2.079,-2.0811,-2.082,-2.0829,-2.0853,-2.0894,-2.0922,-2.096,-2.1049,-2.1054,-2.1091,-2.1104,-2.1115,-2.1125,-2.1175,-2.1192,-2.1009,-2.1009,-2.1008,0,0,-2.0703,-2.0714,-2.0741,-2.0786,-2.08,-2.0846,-2.0787,-2.0837,-2.0871,-2.0828,-2.0895,-2.0903,-2.0928,-2.1009,-2.1045,-2.1019,-2.1176,-2.1125,-2.1133,-2.1137,-2.1184,-2.1202,-2.1217,-2.1014,-2.1013,-2.1012,0,0,-2.0817,-2.0828,-2.0888,-2.0904,-2.0926,-2.0922,-2.0937,-2.0953,-2.0956,-2.1023,-2.0992,-2.1033,-2.1103,-2.1123,-2.1142,-2.1263,-2.1239,-2.1276,-2.1344,-2.1392,-2.1407,-2.142,-2.1465,-2.1481,-2.1285,-2.1286,-2.1286,0,-2.0876,-2.0941,-2.0922,-2.0974,-2.0996,-2.0957,-2.1019,-2.1036,-2.107,-2.1087,-2.1056,-2.1145,-2.1159,-2.1245,-2.1274,-2.129,-2.1308,-2.1274,-2.1406,-2.1419,-2.143,-2.1473,-2.149,-2.129,-2.129,-2.1289,-2.1289,0,-2.1013,-2.1059,-2.1105,-2.1138,-2.1164,-2.1221,-2.1213,-2.1242,-2.1227,-2.1227,-2.1297,-2.1312,-2.1353,-2.1372,-2.1359,-2.1456,-2.144,-2.1408,-2.1355,-2.1453,-2.1493,-2.1509,-2.1297,-2.1295,-2.1294,-2.1292,0,0,-2.117,-2.1191,-2.1209,-2.1224,-2.1245,-2.1281,-2.1337,-2.1376,-2.1402,-2.1427,-2.1475,-2.1536,-2.1506,-2.1528,-2.1517,-2.1559,-2.1656,-2.1522,-2.1523,-2.1549,-2.1767,-2.1792,-2.1811,-2.1639,-2.1642,-2.1645,-2.1766,0,-2.1284,-2.138,-2.1365,-2.1458,-2.1501,-2.1465,-2.1514,-2.1534,-2.1535,-2.1573,-2.1576,-2.162,-2.1577,-2.159,-2.1631,-2.1636,-2.17,-2.1627,-2.1686,-2.1688,-2.1683,-2.1832,-2.1859,-2.1972,-2.1781,-2.1784,-2.1786,0,-2.1431,-2.1461,-2.1558,-2.1573,-2.1591,-2.1635,-2.167,-2.1706,-2.1728,-2.1727,-2.1751,-2.1732,-2.1789,-2.1734,-2.1815,-2.1765,-2.1788,-2.1795,-2.1799,-2.1806,-2.1744,-2.1845,-2.2008,-2.2026,-2.181,-2.1808,-2.1806,0,-2.1538,-2.1602,-2.1668,-2.1682,-2.1702,-2.1734,-2.1744,-2.1762,-2.1787,-2.1818,-2.1834,-2.1872,-2.1893,-2.1924,-2.1916,-2.1876,-2.1999,-2.1943,-2.2002,-2.2002,-2.2031,-2.2029,-2.2202,-2.2042,-2.2042,-2.2042,-2.2042,0,-2.1669,-2.1731,-2.1717,-2.1758,-2.1826,-2.1809,-2.1877,-2.1883,-2.19,-2.1943,-2.1914,-2.1955,-2.1941,-2.1983,-2.1977,-2.2046,-2.2055,-2.2057,-2.2055,-2.2061,-2.2061,-2.2077,-2.207,-2.2046,-2.2045,-2.2045,-2.2044,0,-2.1801,-2.1794,-2.1864,-2.1877,-2.1881,-2.1931,-2.1943,-2.1982,-2.1981,-2.2036,-2.2048,-2.2048,-2.2095,-2.2089,-2.2142,-2.2138,-2.2224,-2.2212,-2.2217,-2.2215,-2.2274,-2.227,-2.2465,-2.2491,-2.2313,-2.2314,-2.2316,0,-2.1886,-2.1932,-2.1949,-2.1975,-2.1987,-2.203,-2.2054,-2.2039,-2.2066,-2.2095,-2.2132,-2.2176,-2.221,-2.2287,-2.2293,-2.2334,-2.2324,-2.2389,-2.233,-2.2334,-2.2327,-2.2325,-2.2331,-2.2402,-2.2404,-2.2405,-2.2407,0,-2.2038,-2.2033,-2.2068,-2.2104,-2.2134,-2.2161,-2.2185,-2.2209,-2.2196,-2.2229,-2.2275,-2.2302,-2.2355,-2.2401,-2.2439,-2.2451,-2.2428,-2.2425,-2.2441,-2.2448,-2.245,-2.2452,-2.2251,-2.2421,-2.242,-2.2419,-2.2418,-2.2417,-2.2151,-2.2191,-2.2209,-2.2251,-2.2267,-2.2291,-2.2329,-2.2332,-2.237,-2.2412,-2.2401,-2.2454,-2.2477,-2.2525,-2.2541,-2.2584,-2.2561,-2.2584,-2.259,-2.2596,-2.2604,-2.2441,-2.2591,-2.2591,-2.259,-2.259,-2.259,0,-2.2303,-2.2313,-2.2351,-2.2386,-2.2419,-2.2392,-2.2418,-2.2448,-2.2495,-2.2517,-2.2551,-2.2606,-2.2649,-2.2658,-2.2699,-2.2732,-2.2723,-2.2744,-2.2743,-2.2746,-2.2622,-2.2605,-2.2751,-2.2751,-2.2751,-2.2751,-2.2751,-2.2751,-2.2387,-2.2453,-2.245,-2.2525,-2.2534,-2.2586,-2.2603,-2.2626,-2.2643,-2.2705,-2.274,-2.2745,-2.2762,-2.2805,-2.2844,-2.2845,-2.2863,-2.2889,-2.2887,-2.2771,-2.2755,-2.274,-2.2723,-2.2893,-2.2893,-2.3008,-2.3009,-2.301]},{"header":{"parameterUnit":"m.s-1","parameterCategory":1,"la1":30.2991,"la2":30.254,"lo1":-89.0895,"lo2":-89.0444,"dy":0.0017,"dx":0.0017,"nx":28,"ny":28,"refTime":"2025-11-29T03:00:00:Z","depth":0,"parameterNumber":3,"parameterNumberName":"V-component_of_WINDS"},"data":[0,0,0,0,0,0,0,0,0,0,0,0,0,0,0,0,0,0,0,0,0,0,0,0,0,0,0,0,0,0,0,0,0,0,0,0,0,0,0,0,0,0,0,0,0,0,0,0,0,0,0,0,0,0,0,0,0,0,-4.7141,-4.714,0,-4.7083,-4.7082,-4.7082,-4.7003,-4.7001,-4.7,-4.6999,-4.6938,-4.6938,-4.6938,0,0,0,0,0,0,0,0,0,0,0,0,0,-4.7181,-4.7181,-4.7141,-4.714,-4.7139,-4.7083,-4.7082,-4.7081,-4.7003,-4.7001,-4.7,-4.6998,-4.6938,-4.6938,-4.6938,0,0,0,0,0,0,0,0,0,0,0,0,0,-4.7147,-4.7181,-4.7141,-4.7093,-4.7088,-4.7083,-4.7082,-4.7081,-4.7003,-4.7001,-4.6999,-4.6997,-4.6939,-4.6938,-4.6938,-4.6974,0,0,-4.6936,-4.6936,0,0,0,0,0,0,0,0,-4.7149,-4.7146,-4.7101,-4.7096,-4.7091,-4.7048,-4.7074,-4.7045,-4.7004,-4.7036,-4.6999,-4.6996,-4.6976,-4.6973,-4.6966,-4.6971,-4.6968,-4.6936,-4.6935,-4.6935,-4.6935,0,0,0,0,0,0,0,-4.7152,-4.7148,-4.7118,-4.71,-4.7094,-4.7074,-4.7067,-4.7068,-4.7018,-4.7033,-4.7027,-4.7021,-4.6973,-4.6967,-4.6964,-4.6967,-4.6936,-4.6935,-4.6935,-4.6935,-4.6998,-4.7,0,0,0,0,0,0,-4.7161,-4.7151,-4.7119,-4.7116,-4.7116,-4.7075,-4.7067,-4.7064,-4.7017,-4.7009,-4.7023,-4.7018,-4.6969,-4.6965,-4.6962,-4.7,-4.6935,-4.6935,-4.6934,-4.6996,-4.6999,-4.7001,0,0,0,0,0,0,-4.7163,-4.7159,-4.7122,-4.7132,-4.7125,-4.7077,-4.7073,-4.7064,-4.7057,-4.701,-4.7001,-4.7026,-4.6967,-4.6962,-4.6971,-4.6997,-4.6934,-4.6934,-4.6994,-4.6997,-4.7,-4.7079,0,0,0,0,0,0,-4.7164,-4.716,-4.7174,-4.7133,-4.7125,-4.7133,-4.7075,-4.7064,-4.7057,-4.7049,-4.701,-4.7002,-4.6965,-4.6973,-4.6971,-4.6995,-4.6933,-4.6991,-4.6995,-4.6999,-4.7074,-4.7084,-4.7093,0,0,0,0,0,-4.7166,-4.7199,-4.7175,-4.7172,-4.7141,-4.7135,-4.7131,-4.7088,-4.7059,-4.7072,-4.7042,-4.7003,-4.6995,-4.6974,-4.6971,-4.6996,-4.6989,-4.6994,-4.6998,-4.707,-4.7082,-4.7093,0,0,0,0,0,0,-4.7244,-4.7192,-4.7166,-4.7186,-4.7166,-4.7122,-4.7137,-4.7103,-4.709,-4.7084,-4.7031,-4.7023,-4.7038,-4.7018,-4.6996,-4.7028,-4.6986,-4.699,-4.7041,-4.7053,-4.7063,-4.7067,-4.6933,0,0,0,0,0,-4.7264,-4.7264,-4.7218,-4.724,-4.7232,-4.7186,-4.7182,-4.7151,-4.7127,-4.7118,-4.7088,-4.7066,-4.7058,-4.7055,-4.7045,-4.707,-4.706,-4.7086,-4.7096,-4.7104,-4.7108,-4.712,-4.713,-4.7016,-4.7016,-4.7016,0,0,-4.7305,-4.7276,-4.7279,-4.7256,-4.7236,-4.7236,-4.718,-4.7182,-4.7182,-4.7118,-4.7125,-4.7102,-4.7074,-4.7091,-4.7097,-4.7075,-4.7138,-4.711,-4.7117,-4.7117,-4.7125,-4.7136,-4.7146,-4.7019,-4.7018,-4.7018,0,0,-4.7379,-4.7358,-4.7374,-4.7355,-4.7326,-4.7296,-4.73,-4.7261,-4.7244,-4.7249,-4.7202,-4.72,-4.7188,-4.7169,-4.7159,-4.7226,-4.7189,-4.7224,-4.7275,-4.7286,-4.7295,-4.7303,-4.7326,-4.7335,-4.7228,-4.7228,-4.7228,0,-4.7433,-4.7432,-4.7386,-4.7392,-4.7383,-4.7325,-4.7341,-4.7325,-4.7294,-4.7289,-4.7264,-4.7248,-4.7225,-4.7237,-4.7253,-4.7246,-4.7248,-4.7228,-4.7298,-4.7305,-4.7312,-4.7333,-4.7342,-4.7233,-4.7232,-4.7232,-4.7231,0,-4.75,-4.75,-4.7516,-4.7488,-4.7481,-4.7492,-4.7447,-4.7444,-4.7414,-4.7386,-4.7392,-4.7362,-4.7346,-4.7346,-4.7316,-4.7353,-4.734,-4.7308,-4.7264,-4.7328,-4.7347,-4.7355,-4.7239,-4.7237,-4.7236,-4.7235,0,0,-4.7622,-4.7569,-4.7575,-4.7562,-4.7526,-4.7524,-4.7532,-4.7516,-4.7515,-4.7495,-4.75,-4.7491,-4.746,-4.7448,-4.7415,-4.7425,-4.7479,-4.7391,-4.739,-4.7408,-4.7518,-4.7543,-4.7553,-4.7455,-4.7456,-4.7458,-4.752,0,-4.7689,-4.77,-4.7659,-4.768,-4.7679,-4.7624,-4.7631,-4.7609,-4.7583,-4.7577,-4.7548,-4.7542,-4.7502,-4.7495,-4.7502,-4.7472,-4.7501,-4.7466,-4.7458,-4.7458,-4.7467,-4.7563,-4.759,-4.765,-4.7527,-4.7529,-4.7529,0,-4.7769,-4.7754,-4.7776,-4.7738,-4.7736,-4.7742,-4.7724,-4.772,-4.7693,-4.7673,-4.766,-4.7622,-4.7626,-4.7585,-4.7588,-4.7566,-4.756,-4.7544,-4.7546,-4.7543,-4.7498,-4.7563,-4.7668,-4.7677,-4.7541,-4.754,-4.7539,0,-4.7856,-4.7841,-4.7852,-4.7842,-4.7798,-4.7804,-4.7786,-4.7757,-4.775,-4.7734,-4.7728,-4.7712,-4.7704,-4.7692,-4.765,-4.7624,-4.7659,-4.7614,-4.7642,-4.7643,-4.7652,-4.7652,-4.7757,-4.7648,-4.7648,-4.7648,-4.7648,0,-4.7935,-4.795,-4.789,-4.7897,-4.7912,-4.7864,-4.788,-4.7856,-4.7831,-4.7831,-4.7783,-4.7784,-4.7729,-4.7724,-4.7692,-4.77,-4.7696,-4.7679,-4.7671,-4.7684,-4.7686,-4.7679,-4.7674,-4.765,-4.765,-4.765,-4.7649,0,-4.8035,-4.7995,-4.8003,-4.7961,-4.795,-4.7963,-4.7927,-4.7931,-4.7901,-4.7902,-4.79,-4.7853,-4.7845,-4.7802,-4.7783,-4.7761,-4.778,-4.7763,-4.779,-4.7784,-4.7814,-4.7812,-4.7919,-4.793,-4.7815,-4.7816,-4.7817,0,-4.8088,-4.8098,-4.8057,-4.8054,-4.8038,-4.8034,-4.8026,-4.7979,-4.7973,-4.7943,-4.7951,-4.7938,-4.7926,-4.7914,-4.7878,-4.7863,-4.7845,-4.7884,-4.7843,-4.7855,-4.7845,-4.7845,-4.7846,-4.7893,-4.7894,-4.7895,-4.7896,0,-4.8186,-4.8166,-4.8157,-4.8142,-4.8134,-4.8119,-4.8101,-4.8102,-4.8049,-4.8044,-4.8035,-4.8026,-4.8006,-4.7994,-4.7973,-4.7953,-4.7916,-4.791,-4.7915,-4.7929,-4.7944,-4.7936,-4.7814,-4.7907,-4.7906,-4.7905,-4.7905,-4.7904,-4.8264,-4.827,-4.8242,-4.8234,-4.8216,-4.82,-4.8202,-4.8172,-4.8164,-4.8146,-4.8118,-4.8112,-4.8084,-4.8052,-4.8035,-4.8029,-4.8008,-4.8016,-4.8018,-4.8021,-4.8028,-4.7945,-4.8025,-4.8025,-4.8025,-4.8024,-4.8024,0,-4.8359,-4.8339,-4.8331,-4.8308,-4.8302,-4.8268,-4.8246,-4.8242,-4.8238,-4.8216,-4.8205,-4.8194,-4.8181,-4.8145,-4.8128,-4.8131,-4.8113,-4.8128,-4.8127,-4.8123,-4.8048,-4.8044,-4.8142,-4.8142,-4.8142,-4.8142,-4.8142,-4.8142,-4.8408,-4.8418,-4.8394,-4.8393,-4.8372,-4.8367,-4.8357,-4.8342,-4.8324,-4.8314,-4.8304,-4.828,-4.8252,-4.8233,-4.822,-4.8209,-4.8205,-4.8226,-4.821,-4.814,-4.8129,-4.8118,-4.8114,-4.8225,-4.8226,-4.8285,-4.8286,-4.8286]}]]